TITAN 3C TRANSTAGE DEB, 1835

Orbit data source: Space-Track

TITAN 3C TRANSTAGE DEB, 1835 is space debris in LEO originally from a launch on Fri, 15 Oct 1965 UTC launched from the Air Force Eastern Test Range (AFETR). Debris objects in space refer to the collection of defunct objects orbiting the Earth. Examples of debris include non-operational satellites, rocket bodies, and fragments generated from explosions, collisions, or faulty payload assembly.

Loading next visibility...
Identifier
1835, 1965-082EA
Orbit
LEO
Last TLE update
1 day ago
Origin
Manufacturer
Unknown
Mission
Spacecraft
Bus & Motor
Unknown
Mass
Unknown
Launch date (UTC)
1965-10-15 (60 years ago)
Launch vehicle
Unknown
Launch site
Air Force Eastern Test Range (AFETR)
Object type
Payload
Rocket body
Debris
Shape & HBR
Unknown
Radar Cross Section
Small (<0.1 m²)

Expand to show TLE details & history

TLE from 1 day ago
0 TITAN 3C TRANSTAGE DEB
1 01835U 65082EA  25166.37792772  .00003233  00000-0  21687-3 0  9990
2 01835  32.3928 183.4603 0012681 303.6893  56.2560 15.05381911191987
Epoch: 2025-06-15T09:04Z
TLE epoch observation values (Epoch: 2025-06-15T09:04:12.955Z)
Latitude
-0°
Longitude
143.50243°
Altitude
544.112 km
Speed
7.595 km/s
True Right ascension
12h 13m 50s
True Declination
0° 00' 00"
Sunlit
Object was in daylight at epoch
Visualization orbit readout
Latitude
20.91706°
Longitude
172.72969°
Altitude
548.049 km
Speed
7.593 km/s
Apparent Right ascension
13h 29m 07s
Apparent Declination
-8° 14' 53"
Sunlit
Object is in full shadow
Visualization observer readout
Local Sidereal Time
00:33:52
Azimuth
335.003° NNW
Elevation
-56.013°
Doppler factor
1
Orbital elements
Apogee altitude
562.75 km
Perigee altitude
545.169 km
Semi-major axis
6,932.096 km
Eccentricity
0.00127
Inclination
32.3928°
RAAN
183.4603°
Arg. of periapsis
303.6893°
True anomaly
Unknown
Mean anomaly
56.256°
Eccentric anomaly
Unknown
Mean motion
3.76051 °/min
Orbital period
95.73 mins
BSTAR
0.00021687
Loading maneuver chart data...
Loading SW <> Apogee altitude chart data...

TITAN 3C TRANSTAGE DEB Visibility forecast

Observer location: undefined°, undefined°

Span
Click to sort rows by Start time (UTC) header in descending order
Start Az.
Max El. time (UTC)
Max El. Az.
Max El.
End time (UTC)
End Az.
4 mins2025-06-17 04:17:00.150Z188.228° SSW2025-06-17 04:19:00.150Z157.148° SSE14.449°2025-06-17 04:21:00.150Z127.397° SE
5 mins2025-06-17 05:57:00.150Z221.517° SW2025-06-17 05:59:00.150Z185.022° SSW23.995°2025-06-17 06:02:00.150Z124.574° SE
5 mins2025-06-17 07:38:00.150Z231.593° WSW2025-06-17 07:40:00.150Z192.541° SSW23.597°2025-06-17 07:43:00.150Z137.374° SSE
|